Tracking 21612 objects as of 20-Oct-2020
HD Live streaming from Space Station
objects crossing your sky now

TITAN 34B AGENA D DEB

Track TITAN 34B AGENA D DEB now!
10-day predictions


NORAD ID: 23811
Int'l Code: 1983-078C
Perigee: 648.1 km
Apogee: 13,565.8 km
Inclination: 63.6 °
Period: 259.5 minutes
Semi major axis: 13477 km
RCS: Unknown
Launch date: July 31, 1983
Source: United States (US)
Launch site: AIR FORCE WESTERN TEST RANGE (AFWTR)

Note: This is SATELLITE DEBRIS
aabbcc
Your satellite tracking list
Your tracking list is empty




NASA's NSSDC Master Catalog

Two Line Element Set (TLE):
1 23811U 83078C   20292.05728578 -.00000776 +00000-0 -33480-2 0  9990
2 23811 063.6014 198.6660 4792147 253.1487 050.6051 05.54838728022389
Source of the keplerian elements: AFSPC